WA7ZVY-4 Weather Reports


time (UTC)temp
C
wind
direction
speed
KPH
gust
KPH
rain 1hr
cm
rain 24hr
cm
rain mn
cm
humidity
%
barometer
mb
20220524025840 12 35 14.5 17.7 0.00 0.00 0.00 84 1022.3
20220524025332 12 19 9.7 12.9 0.00 0.00 0.00 83 1022.4
20220524024826 12 309 11.3 22.5 0.00 0.00 0.00 83 1022.3
20220524023811 12 281 9.7 22.5 0.00 0.00 0.00 83 1022.3
20220524023304 12 9 8.0 17.7 0.00 0.00 0.00 82 1022.2
20220524022758 12 260 14.5 17.7 0.00 0.00 0.00 82 1022.1
20220524022250 12 0 16.1 16.1 0.00 0.00 0.00 82 1022.1
20220524021743 12 8 8.0 12.9 0.00 0.00 0.00 82 1022.2
20220524021237 12 333 4.8 22.5 0.00 0.00 0.00 82 1022.3
20220524020729 12 306 6.4 22.5 0.00 0.00 0.00 82 1022.3
20220524015715 13 320 16.1 22.5 0.00 0.00 0.00 81 1022.3
20220524015208 13 29 4.8 17.7 0.00 0.00 0.00 81 1022.4
20220524014701 13 313 11.3 17.7 0.00 0.00 0.00 80 1022.4
20220524014154 13 39 12.9 14.5 0.00 0.00 0.00 80 1022.3
20220524013647 13 305 12.9 24.1 0.00 0.00 0.00 79 1022.3
20220524013140 13 15 14.5 24.1 0.00 0.00 0.00 79 1022.4
20220524012633 13 347 9.7 24.1 0.00 0.00 0.00 78 1022.4
20220524012126 13 275 16.1 24.1 0.00 0.00 0.00 77 1022.5
20220524011112 14 46 11.3 24.1 0.00 0.00 0.00 77 1022.6
20220524010605 14 331 12.9 24.1 0.00 0.00 0.00 76 1022.6
20220524010059 15 338 14.5 19.3 0.00 0.00 0.00 77 1022.5
20220524005551 15 334 11.3 29.0 0.00 0.00 0.00 77 1022.6
20220524005044 15 11 12.9 29.0 0.00 0.00 0.00 76 1022.7
20220524004030 15 289 20.9 29.0 0.00 0.00 0.00 76 1022.7
20220524003523 15 340 4.8 19.3 0.00 0.00 0.00 75 1022.7
20220524003016 15 21 12.9 17.7 0.00 0.00 0.00 75 1022.7
20220524002509 15 340 6.4 24.1 0.00 0.00 0.00 75 1022.9
20220524002002 15 334 11.3 24.1 0.00 0.00 0.00 75 1022.8
20220524001455 15 316 9.7 24.1 0.00 0.00 0.00 74 1022.9
20220524000948 15 282 14.5 24.1 0.00 0.00 0.00 76 1023.0
20220524000441 15 12 16.1 22.5 0.00 0.00 0.00 76 1023.1
20220523235935 15 282 16.1 22.5 0.00 0.00 0.00 75 1023.3
20220523235427 15 296 14.5 22.5 0.00 0.00 0.00 75 1023.4
20220523234920 15 14 12.9 22.5 0.00 0.00 0.00 76 1023.4
20220523234413 15 21 8.0 19.3 0.00 0.00 0.00 76 1023.5
20220523233906 15 298 16.1 19.3 0.00 0.00 0.00 75 1023.5
20220523233359 15 23 16.1 17.7 0.00 0.00 0.00 76 1023.3
20220523231838 15 33 14.5 19.3 0.00 0.00 0.00 75 1023.5
20220523231331 15 9 12.9 19.3 0.00 0.00 0.00 76 1023.7
20220523225810 16 334 14.5 22.5 0.00 0.00 0.00 75 1023.8
20220523225303 16 357 9.7 22.5 0.00 0.00 0.00 76 1023.9
20220523224756 16 1 9.7 22.5 0.00 0.00 0.00 75 1023.8
20220523224249 16 291 14.5 22.5 0.00 0.00 0.00 75 1023.9
20220523223743 16 317 6.4 16.1 0.00 0.00 0.00 76 1023.9
20220523223235 15 4 9.7 16.1 0.00 0.00 0.00 76 1023.9
20220523222728 15 315 11.3 20.9 0.00 0.00 0.00 76 1023.9
20220523222221 15 22 14.5 20.9 0.00 0.00 0.00 77 1023.9
20220523221714 15 317 12.9 20.9 0.00 0.00 0.00 76 1023.9
20220523221207 15 329 12.9 20.9 0.00 0.00 0.00 76 1024.0
20220523220700 15 333 16.1 16.1 0.00 0.00 0.00 75 1023.9
20220523220153 16 295 11.3 14.5 0.00 0.00 0.00 77 1023.9
20220523215646 16 298 11.3 20.9 0.00 0.00 0.00 77 1023.8
20220523215141 15 292 4.8 20.9 0.00 0.00 0.00 78 1024.0
20220523214632 15 344 9.7 20.9 0.00 0.00 0.00 78 1024.0
20220523214125 15 333 14.5 22.5 0.00 0.00 0.00 78 1024.0
20220523213618 14 281 9.7 22.5 0.00 0.00 0.00 78 1024.0
20220523213111 15 337 14.5 22.5 0.00 0.00 0.00 77 1024.0
20220523212604 15 347 11.3 22.5 0.00 0.00 0.00 77 1024.1
20220523212057 15 350 12.9 20.9 0.00 0.00 0.00 78 1024.2
20220523211550 15 312 16.1 20.9 0.00 0.00 0.00 77 1024.1
20220523210030 15 9 8.0 19.3 0.00 0.00 0.00 75 1024.3
20220523205522 16 270 16.1 17.7 0.00 0.00 0.00 75 1024.4
20220523205016 16 350 9.7 17.7 0.00 0.00 0.00 75 1024.4
20220523202947 15 281 9.7 20.9 0.00 0.00 0.00 77 1024.5
20220523202440 15 287 11.3 16.1 0.00 0.00 0.00 77 1024.6
20220523201933 15 289 14.5 20.9 0.00 0.00 0.00 77 1024.8
20220523200921 15 327 17.7 20.9 0.00 0.00 0.00 77 1024.6
20220523200412 15 298 19.3 19.3 0.00 0.00 0.00 77 1024.6
20220523195358 15 323 14.5 25.7 0.00 0.00 0.00 76 1024.6
20220523194851 15 317 16.1 25.7 0.00 0.00 0.00 76 1024.7
20220523194346 15 312 14.5 19.3 0.00 0.00 0.00 75 1024.6
20220523193837 16 298 14.5 19.3 0.00 0.00 0.00 75 1024.7
20220523193330 16 357 9.7 14.5 0.00 0.00 0.00 76 1024.7
20220523192316 16 315 11.3 14.5 0.00 0.00 0.00 77 1024.9
20220523191809 16 292 4.8 14.5 0.00 0.00 0.00 79 1024.7
20220523191302 15 319 9.7 14.5 0.00 0.00 0.00 77 1024.7
20220523190756 16 327 11.3 14.5 0.00 0.00 0.00 77 1024.8
20220523190249 16 312 9.7 12.9 0.00 0.00 0.00 77 1024.7
20220523185236 15 305 9.7 14.5 0.00 0.00 0.00 78 1024.6
20220523184727 15 266 9.7 14.5 0.00 0.00 0.00 78 1024.6
20220523184220 15 331 9.7 14.5 0.00 0.00 0.00 78 1024.6
20220523182700 15 288 9.7 14.5 0.00 0.00 0.00 79 1024.7
20220523181138 15 338 11.3 14.5 0.00 0.00 0.00 79 1024.6
20220523175619 15 327 9.7 12.9 0.00 0.00 0.00 81 1024.7
20220523175110 15 350 8.0 12.9 0.00 0.00 0.00 81 1024.8
20220523174056 14 333 8.0 11.3 0.00 0.00 0.00 82 1024.8
20220523173549 13 305 9.7 14.5 0.00 0.00 0.00 82 1024.6
20220523173044 14 341 12.9 14.5 0.00 0.00 0.00 83 1024.7
20220523172027 14 284 9.7 12.9 0.00 0.00 0.00 84 1024.6
20220523171520 13 329 8.0 12.9 0.00 0.00 0.00 85 1024.7
20220523171013 13 315 9.7 12.9 0.00 0.00 0.00 85 1024.7
20220523170506 14 0 0.0 9.7 0.00 0.00 0.00 86 1024.8
20220523165959 13 57 8.0 11.3 0.00 0.00 0.00 88 1024.9
20220523164945 13 338 9.7 11.3 0.00 0.00 0.00 88 1025.0
20220523164439 12 330 11.3 11.3 0.00 0.00 0.00 88 1025.0
20220523163931 12 330 9.7 11.3 0.00 0.00 0.00 89 1024.9
20220523163424 12 315 4.8 11.3 0.00 0.00 0.00 89 1024.8
20220523162917 12 340 9.7 11.3 0.00 0.00 0.00 89 1024.8
20220523162410 12 322 8.0 11.3 0.00 0.00 0.00 89 1024.7
20220523161903 12 350 9.7 11.3 0.00 0.00 0.00 89 1024.7
20220523161356 12 336 9.7 11.3 0.00 0.00 0.00 89 1024.7
20220523160851 12 333 3.2 11.3 0.00 0.00 0.00 90 1024.6
20220523155835 12 341 8.0 11.3 0.00 0.00 0.00 91 1024.6
20220523155328 12 317 6.4 9.7 0.00 0.00 0.00 92 1024.7
20220523153807 12 357 3.2 8.0 0.00 0.00 0.00 93 1024.6
20220523153300 11 0 0.0 0.0 0.00 0.00 0.00 94 1024.5
20220523152753 11 292 1.6 6.4 0.00 0.00 0.00 94 1024.6
20220523152246 11 330 1.6 6.4 0.00 0.00 0.00 94 1024.3
20220523151232 11 322 1.6 4.8 0.00 0.00 0.00 94 1024.1
20220523145713 11 0 0.0 1.6 0.00 0.00 0.00 94 1024.0
20220523145204 11 0 0.0 1.6 0.00 0.00 0.00 94 1024.0
20220523144658 11 330 0.0 1.6 0.00 0.00 0.00 95 1024.0
20220523144151 11 0 0.0 0.0 0.00 0.00 0.00 95 1023.9
20220523143645 11 0 0.0 0.0 0.00 0.00 0.00 95 1024.0
20220523143643 11 0 0.0 0.0 0.00 0.00 0.00 95 1024.0
20220523143136 11 0 0.0 0.0 0.00 0.00 0.00 95 1024.0
20220523142629 11 0 0.0 0.0 0.00 0.00 0.00 95 1024.0
20220523142122 11 0 0.0 0.0 0.00 0.00 0.00 95 1023.8
20220523141108 11 0 0.0 0.0 0.00 0.00 0.00 96 1023.7
20220523140601 11 0 0.0 0.0 0.00 0.00 0.00 96 1023.7
20220523140054 11 0 0.0 0.0 0.00 0.00 0.00 96 1023.7
20220523135547 11 0 0.0 0.0 0.00 0.00 0.00 96 1023.6
20220523134535 11 0 0.0 0.0 0.00 0.00 0.00 96 1023.6
20220523134027 10 0 0.0 0.0 0.00 0.00 0.00 96 1023.8
20220523133520 10 0 0.0 0.0 0.00 0.00 0.00 96 1023.7
20220523133012 10 0 0.0 0.0 0.00 0.00 0.00 96 1023.6
20220523132505 10 0 0.0 0.0 0.00 0.00 0.00 96 1023.8
20220523131958 10 0 0.0 0.0 0.00 0.00 0.00 96 1023.8
20220523130944 10 0 0.0 0.0 0.00 0.00 0.00 96 1023.9
20220523130437 10 0 0.0 0.0 0.00 0.00 0.00 96 1023.9
20220523125930 10 0 0.0 0.0 0.00 0.00 0.00 96 1023.9
20220523125423 10 0 0.0 0.0 0.00 0.00 0.00 95 1023.8
20220523124916 10 0 0.0 0.0 0.00 0.00 0.00 95 1023.7
20220523124410 10 0 0.0 0.0 0.00 0.00 0.00 95 1023.8
20220523123902 10 0 0.0 0.0 0.00 0.00 0.00 95 1023.7
20220523123355 10 0 0.0 0.0 0.00 0.00 0.00 95 1023.7
20220523122848 10 0 0.0 0.0 0.00 0.00 0.00 95 1023.7
20220523122341 10 0 0.0 0.0 0.00 0.00 0.00 95 1023.7
20220523121327 10 0 0.0 0.0 0.00 0.00 0.00 95 1023.8
20220523120821 10 0 0.0 0.0 0.00 0.00 0.00 95 1023.8
20220523120313 10 0 0.0 0.0 0.00 0.00 0.00 95 1023.8
20220523115806 10 0 0.0 0.0 0.00 0.00 0.00 95 1023.8
20220523115259 10 0 0.0 0.0 0.00 0.00 0.00 95 1023.8
20220523114752 10 0 0.0 0.0 0.00 0.00 0.00 95 1023.8
20220523113231 10 0 0.0 0.0 0.00 0.00 0.00 95 1023.6
20220523112724 10 0 0.0 0.0 0.00 0.00 0.00 95 1023.6
20220523112217 10 0 0.0 0.0 0.00 0.00 0.00 96 1023.6
20220523111710 10 0 0.0 0.0 0.00 0.00 0.00 96 1023.6
20220523111202 10 0 0.0 0.0 0.00 0.00 0.00 96 1023.5
20220523110656 10 0 0.0 0.0 0.00 0.00 0.00 96 1023.4
20220523110149 10 0 0.0 0.0 0.00 0.00 0.00 96 1023.4
20220523105643 10 0 0.0 0.0 0.00 0.00 0.00 96 1023.4
20220523105135 10 0 0.0 0.0 0.00 0.00 0.00 96 1023.5
20220523104629 10 0 0.0 0.0 0.00 0.00 0.00 96 1023.5
20220523104122 10 0 0.0 0.0 0.00 0.00 0.00 96 1023.5
20220523103107 10 0 0.0 0.0 0.00 0.00 0.00 96 1023.6
20220523102600 10 0 0.0 0.0 0.00 0.00 0.00 96 1023.6
20220523102053 10 0 0.0 0.0 0.00 0.00 0.00 96 1023.6
20220523101546 10 0 0.0 0.0 0.00 0.00 0.00 96 1023.6
20220523100025 10 0 0.0 0.0 0.00 0.00 0.00 96 1023.5
20220523095014 10 0 0.0 0.0 0.00 0.00 0.00 96 1023.4
20220523094504 10 0 0.0 0.0 0.00 0.00 0.00 96 1023.4
20220523094000 10 0 0.0 0.0 0.00 0.00 0.00 96 1023.3
20220523093450 10 0 0.0 0.0 0.00 0.00 0.00 96 1023.4
20220523092943 10 0 0.0 0.0 0.00 0.00 0.00 96 1023.4
20220523092436 10 0 0.0 0.0 0.00 0.00 0.00 96 1023.5
20220523091929 10 0 0.0 0.0 0.00 0.00 0.00 96 1023.5
20220523091422 10 0 0.0 0.0 0.00 0.00 0.00 96 1023.5
20220523090915 10 0 0.0 0.0 0.00 0.00 0.00 96 1023.5
20220523090408 10 0 0.0 0.0 0.00 0.00 0.00 96 1023.5
20220523085901 10 0 0.0 3.2 0.00 0.00 0.00 96 1023.7
20220523085354 10 0 0.0 3.2 0.00 0.00 0.00 96 1023.8
20220523084847 10 0 0.0 3.2 0.00 0.00 0.00 96 1023.7
20220523084343 10 317 1.6 3.2 0.00 0.00 0.00 96 1023.7
20220523083833 10 0 0.0 6.4 0.00 0.00 0.00 96 1023.7
20220523083326 10 0 0.0 6.4 0.00 0.00 0.00 96 1023.6
20220523082312 10 334 1.6 4.8 0.00 0.00 0.00 96 1023.5
20220523081805 10 0 0.0 0.0 0.00 0.00 0.00 95 1023.4
20220523081258 10 0 0.0 4.8 0.00 0.00 0.00 95 1023.3
20220523080751 10 357 1.6 4.8 0.00 0.00 0.00 95 1023.3
20220523080244 10 0 0.0 4.8 0.00 0.00 0.00 95 1023.2
20220523075737 10 355 1.6 4.8 0.00 0.00 0.00 95 1023.2
20220523075230 10 334 1.6 3.2 0.00 0.00 0.00 95 1023.3
20220523074723 10 0 0.0 0.0 0.00 0.00 0.00 94 1023.3
20220523074216 10 0 0.0 0.0 0.00 0.00 0.00 94 1023.3
20220523073709 10 0 0.0 0.0 0.00 0.00 0.00 94 1023.2
20220523073202 10 0 0.0 0.0 0.00 0.00 0.00 94 1023.3
20220523072655 10 0 0.0 0.0 0.00 0.00 0.00 94 1023.3
20220523072148 10 0 0.0 0.0 0.00 0.00 0.00 94 1023.3
20220523071641 10 0 0.0 0.0 0.00 0.00 0.00 94 1023.4
20220523071134 10 0 0.0 0.0 0.00 0.00 0.00 94 1023.3
20220523070627 10 0 0.0 0.0 0.00 0.00 0.00 94 1023.2
20220523070121 10 0 0.0 0.0 0.00 0.00 0.00 93 1023.3
20220523065613 10 0 0.0 0.0 0.00 0.00 0.00 93 1023.3
20220523065106 10 0 0.0 0.0 0.00 0.00 0.00 93 1023.3
20220523064559 11 0 0.0 0.0 0.00 0.00 0.00 93 1023.2
20220523064052 11 0 0.0 0.0 0.00 0.00 0.00 93 1023.3
20220523063545 11 0 0.0 0.0 0.00 0.00 0.00 93 1023.3
20220523062531 11 0 0.0 0.0 0.00 0.00 0.00 93 1023.2
20220523062024 11 0 0.0 0.0 0.00 0.00 0.00 93 1023.4
20220523061517 11 0 0.0 0.0 0.00 0.00 0.00 93 1023.4
20220523061009 11 0 0.0 0.0 0.00 0.00 0.00 92 1023.4
20220523055955 11 0 0.0 0.0 0.00 0.00 0.00 92 1023.5
20220523055449 11 0 0.0 0.0 0.00 0.00 0.00 92 1023.4
20220523054941 11 0 0.0 0.0 0.00 0.00 0.00 92 1023.3
20220523054435 11 0 0.0 0.0 0.00 0.00 0.00 92 1023.2
20220523053927 11 0 0.0 0.0 0.00 0.00 0.00 92 1023.0
20220523053420 11 0 0.0 0.0 0.00 0.00 0.00 91 1023.2
20220523052913 11 0 0.0 0.0 0.00 0.00 0.00 91 1023.3
20220523052406 11 0 0.0 0.0 0.00 0.00 0.00 91 1023.3
20220523051859 11 0 0.0 0.0 0.00 0.00 0.00 90 1023.3
20220523051352 11 0 0.0 0.0 0.00 0.00 0.00 90 1023.4
20220523050846 11 0 0.0 0.0 0.00 0.00 0.00 90 1023.3
20220523050338 11 0 0.0 0.0 0.00 0.00 0.00 90 1023.3
20220523045831 11 0 0.0 0.0 0.00 0.00 0.00 90 1023.2
20220523045324 11 0 0.0 0.0 0.00 0.00 0.00 90 1023.1
20220523044819 11 0 0.0 0.0 0.00 0.00 0.00 90 1023.0
20220523044310 11 0 0.0 0.0 0.00 0.00 0.00 90 1023.0
20220523043803 11 0 0.0 0.0 0.00 0.00 0.00 90 1022.8
20220523043256 11 0 0.0 0.0 0.00 0.00 0.00 90 1022.8
20220523042749 11 0 0.0 0.0 0.00 0.00 0.00 90 1023.0
20220523042244 11 0 0.0 0.0 0.00 0.00 0.00 90 1023.0
20220523041737 11 0 0.0 0.0 0.00 0.00 0.00 90 1023.1
20220523041228 11 0 0.0 0.0 0.00 0.00 0.00 90 1023.0
20220523040721 11 0 0.0 0.0 0.00 0.00 0.00 90 1023.0
20220523040214 11 0 0.0 6.4 0.00 0.00 0.00 90 1022.9
20220523035707 11 0 0.0 6.4 0.00 0.00 0.00 90 1023.0
20220523035200 11 0 0.0 6.4 0.00 0.00 0.00 90 1022.9
20220523034653 11 0 0.0 4.8 0.00 0.00 0.00 90 1023.0
20220523034146 11 0 0.0 4.8 0.00 0.00 0.00 90 1023.1
20220523033639 11 0 0.0 4.8 0.00 0.00 0.00 90 1023.0
20220523033133 11 0 0.0 0.0 0.00 0.00 0.00 90 1023.0
20220523032625 11 0 0.0 8.0 0.00 0.00 0.00 89 1023.1
20220523032118 11 337 1.6 8.0 0.00 0.00 0.00 89 1023.0
20220523031611 11 299 3.2 8.0 0.00 0.00 0.00 89 1023.1
20220523031104 11 357 0.0 8.0 0.00 0.00 0.00 89 1023.2